"FRM_AIS_EDR_2064.DAT           ",2005-08-23T16:07:40.07 ,"1/0072893254.62312",    0,    0,  215717,"AIS","B1","B1","B0","B0","PISd",0,0,0,0,"B1", 0,15,   0, 0,    0,"AIS","N/A    ","OK ","OK ",    001174.881,    -065.743,    -008.159,    0014.616,    0047.707
"FRM_AIS_EDR_2064.DAT           ",2005-08-23T16:07:47.62 ,"1/0072893262.32375",    0,    1,  215717,"AIS","B1","B1","B0","B0","PISd",0,0,0,0,"B1", 0,15,   0, 0,    0,"AIS","N/A    ","OK ","OK ",    001164.504,    -065.418,    -008.076,    0014.624,    0047.540
"FRM_AIS_EDR_2064.DAT           ",2005-08-23T16:07:55.16 ,"1/0072893270.02439",    0,    2,  215717,"AIS","B1","B1","B0","B0","PISd",0,0,0,0,"B1", 0,15,   0, 0,    0,"AIS","N/A    ","OK ","OK ",    001154.157,    -065.091,    -007.995,    0014.631,    0047.373
"FRM_AIS_EDR_2064.DAT           ",2005-08-23T16:08:02.70 ,"1/0072893277.38038",    0,    3,  215717,"AIS","B1","B1","B0","B0","PISd",0,0,0,0,"B1", 0,15,   0, 0,    0,"AIS","N/A    ","OK ","OK ",    001143.842,    -064.763,    -007.917,    0014.638,    0047.206
"FRM_AIS_EDR_2064.DAT           ",2005-08-23T16:08:10.25 ,"1/0072893285.08101",    0,    4,  215717,"AIS","B1","B1","B0","B0","PISd",0,0,0,0,"B1", 0,15,   0, 0,    0,"AIS","N/A    ","OK ","OK ",    001133.560,    -064.433,    -007.841,    0014.645,    0047.040
"FRM_AIS_EDR_2064.DAT           ",2005-08-23T16:08:17.79 ,"1/0072893292.43701",    0,    5,  215717,"AIS","B1","B1","B0","B0","PISd",0,0,0,0,"B1", 0,15,   0, 0,    0,"AIS","N/A    ","OK ","OK ",    001123.310,    -064.101,    -007.767,    0014.652,    0046.875
"FRM_AIS_EDR_2064.DAT           ",2005-08-23T16:08:25.33 ,"1/0072893300.13764",    0,    6,  215717,"AIS","B1","B1","B0","B0","PISd",0,0,0,0,"B1", 0,15,   0, 0,    0,"AIS","N/A    ","OK ","OK ",    001113.093,    -063.768,    -007.695,    0014.659,    0046.710
"FRM_AIS_EDR_2064.DAT           ",2005-08-23T16:08:32.87 ,"1/0072893307.49363",    0,    7,  215717,"AIS","B1","B1","B0","B0","PISd",0,0,0,0,"B1", 0,15,   0, 0,    0,"AIS","N/A    ","OK ","OK ",    001102.910,    -063.434,    -007.625,    0014.666,    0046.546
"FRM_AIS_EDR_2064.DAT           ",2005-08-23T16:08:40.42 ,"1/0072893315.19427",    0,    8,  215717,"AIS","B1","B1","B0","B0","PISd",0,0,0,0,"B1", 0,15,   0, 0,    0,"AIS","N/A    ","OK ","OK ",    001092.761,    -063.097,    -007.556,    0014.672,    0046.383
"FRM_AIS_EDR_2064.DAT           ",2005-08-23T16:08:47.96 ,"1/0072893322.55026",    0,    9,  215717,"AIS","B1","B1","B0","B0","PISd",0,0,0,0,"B1", 0,15,   0, 0,    0,"AIS","N/A    ","OK ","OK ",    001082.647,    -062.759,    -007.490,    0014.679,    0046.220
"FRM_AIS_EDR_2064.DAT           ",2005-08-23T16:08:55.50 ,"1/0072893330.25089",    0,   10,  215717,"AIS","B1","B1","B0","B0","PISd",0,0,0,0,"B1", 0,15,   0, 0,    0,"AIS","N/A    ","OK ","OK ",    001072.568,    -062.420,    -007.425,    0014.685,    0046.058
"FRM_AIS_EDR_2064.DAT           ",2005-08-23T16:09:03.05 ,"1/0072893337.60689",    0,   11,  215717,"AIS","B1","B1","B0","B0","PISd",0,0,0,0,"B1", 0,15,   0, 0,    0,"AIS","N/A    ","OK ","OK ",    001062.524,    -062.079,    -007.362,    0014.691,    0045.897
"FRM_AIS_EDR_2064.DAT           ",2005-08-23T16:09:10.59 ,"1/0072893345.30752",    0,   12,  215717,"AIS","B1","B1","B0","B0","PISd",0,0,0,0,"B1", 0,15,   0, 0,    0,"AIS","N/A    ","OK ","OK ",    001052.517,    -061.736,    -007.301,    0014.697,    0045.737
"FRM_AIS_EDR_2064.DAT           ",2005-08-23T16:09:18.13 ,"1/0072893353.00815",    0,   13,  215717,"AIS","B1","B1","B0","B0","PISd",0,0,0,0,"B1", 0,15,   0, 0,    0,"AIS","N/A    ","OK ","OK ",    001042.547,    -061.392,    -007.242,    0014.704,    0045.577
"FRM_AIS_EDR_2064.DAT           ",2005-08-23T16:09:25.68 ,"1/0072893360.36415",    0,   14,  215717,"AIS","B1","B1","B0","B0","PISd",0,0,0,0,"B1", 0,15,   0, 0,    0,"AIS","N/A    ","OK ","OK ",    001032.615,    -061.046,    -007.183,    0014.709,    0045.419
"FRM_AIS_EDR_2064.DAT           ",2005-08-23T16:09:33.22 ,"1/0072893368.06478",    0,   15,  215717,"AIS","B1","B1","B0","B0","PISd",0,0,0,0,"B1", 0,15,   0, 0,    0,"AIS","N/A    ","OK ","OK ",    001022.720,    -060.699,    -007.127,    0014.715,    0045.261
"FRM_AIS_EDR_2064.DAT           ",2005-08-23T16:09:40.76 ,"1/0072893375.42077",    0,   16,  215717,"AIS","B1","B1","B0","B0","PISd",0,0,0,0,"B1", 0,15,   0, 0,    0,"AIS","N/A    ","OK ","OK ",    001012.863,    -060.350,    -007.072,    0014.721,    0045.104
"FRM_AIS_EDR_2064.DAT           ",2005-08-23T16:09:48.31 ,"1/0072893383.12141",    0,   17,  215717,"AIS","B1","B1","B0","B0","PISd",0,0,0,0,"B1", 0,15,   0, 0,    0,"AIS","N/A    ","OK ","OK ",    001003.045,    -059.999,    -007.018,    0014.727,    0044.949
"FRM_AIS_EDR_2064.DAT           ",2005-08-23T16:09:55.85 ,"1/0072893390.47740",    0,   18,  215717,"AIS","B1","B1","B0","B0","PISd",0,0,0,0,"B1", 0,15,   0, 0,    0,"AIS","N/A    ","OK ","OK ",    000993.267,    -059.647,    -006.966,    0014.732,    0044.794
"FRM_AIS_EDR_2064.DAT           ",2005-08-23T16:10:03.39 ,"1/0072893398.17803",    0,   19,  215717,"AIS","B1","B1","B0","B0","PISd",0,0,0,0,"B1", 0,15,   0, 0,    0,"AIS","N/A    ","OK ","OK ",    000983.530,    -059.293,    -006.915,    0014.738,    0044.640
"FRM_AIS_EDR_2064.DAT           ",2005-08-23T16:10:10.94 ,"1/0072893405.53403",    0,   20,  215717,"AIS","B1","B1","B0","B0","PISd",0,0,0,0,"B1", 0,15,   0, 0,    0,"AIS","N/A    ","OK ","OK ",    000973.832,    -058.938,    -006.866,    0014.743,    0044.488
"FRM_AIS_EDR_2064.DAT           ",2005-08-23T16:10:18.48 ,"1/0072893413.23466",    0,   21,  215717,"AIS","B1","B1","B0","B0","PISd",0,0,0,0,"B1", 0,15,   0, 0,    0,"AIS","N/A    ","OK ","OK ",    000964.176,    -058.581,    -006.818,    0014.748,    0044.336
"FRM_AIS_EDR_2064.DAT           ",2005-08-23T16:10:26.02 ,"1/0072893420.59065",    0,   22,  215717,"AIS","B1","B1","B0","B0","PISd",0,0,0,0,"B1", 0,15,   0, 0,    0,"AIS","N/A    ","OK ","OK ",    000954.562,    -058.222,    -006.771,    0014.753,    0044.186
"FRM_AIS_EDR_2064.DAT           ",2005-08-23T16:10:33.57 ,"1/0072893428.29129",    0,   23,  215717,"AIS","B1","B1","B0","B0","PISd",0,0,0,0,"B1", 0,15,   0, 0,    0,"AIS","N/A    ","OK ","OK ",    000944.990,    -057.862,    -006.725,    0014.758,    0044.037
"FRM_AIS_EDR_2064.DAT           ",2005-08-23T16:10:41.11 ,"1/0072893435.64728",    0,   24,  215717,"AIS","B1","B1","B0","B0","PISd",0,0,0,0,"B1", 0,15,   0, 0,    0,"AIS","N/A    ","OK ","OK ",    000935.461,    -057.500,    -006.681,    0014.763,    0043.890
"FRM_AIS_EDR_2064.DAT           ",2005-08-23T16:10:48.65 ,"1/0072893443.34791",    0,   25,  215717,"AIS","B1","B1","B0","B0","PISd",0,0,0,0,"B1", 0,15,   0, 0,    0,"AIS","N/A    ","OK ","OK ",    000925.975,    -057.136,    -006.637,    0014.768,    0043.743
"FRM_AIS_EDR_2064.DAT           ",2005-08-23T16:10:56.20 ,"1/0072893451.04855",    0,   26,  215717,"AIS","B1","B1","B0","B0","PISd",0,0,0,0,"B1", 0,15,   0, 0,    0,"AIS","N/A    ","OK ","OK ",    000916.534,    -056.771,    -006.595,    0014.773,    0043.598
"FRM_AIS_EDR_2064.DAT           ",2005-08-23T16:11:03.74 ,"1/0072893458.40454",    0,   27,  215717,"AIS","B1","B1","B0","B0","PISd",0,0,0,0,"B1", 0,15,   0, 0,    0,"AIS","N/A    ","OK ","OK ",    000907.137,    -056.404,    -006.554,    0014.778,    0043.455
"FRM_AIS_EDR_2064.DAT           ",2005-08-23T16:11:11.28 ,"1/0072893466.10517",    0,   28,  215717,"AIS","B1","B1","B0","B0","PISd",0,0,0,0,"B1", 0,15,   0, 0,    0,"AIS","N/A    ","OK ","OK ",    000897.786,    -056.036,    -006.514,    0014.783,    0043.313
"FRM_AIS_EDR_2064.DAT           ",2005-08-23T16:11:18.83 ,"1/0072893473.46117",    0,   29,  215717,"AIS","B1","B1","B0","B0","PISd",0,0,0,0,"B1", 0,15,   0, 0,    0,"AIS","N/A    ","OK ","OK ",    000888.480,    -055.665,    -006.475,    0014.787,    0043.172
"FRM_AIS_EDR_2064.DAT           ",2005-08-23T16:11:26.37 ,"1/0072893481.16180",    0,   30,  215717,"AIS","B1","B1","B0","B0","PISd",0,0,0,0,"B1", 0,15,   0, 0,    0,"AIS","N/A    ","OK ","OK ",    000879.221,    -055.294,    -006.437,    0014.792,    0043.034
"FRM_AIS_EDR_2064.DAT           ",2005-08-23T16:11:33.91 ,"1/0072893488.51779",    0,   31,  215717,"AIS","B1","B1","B0","B0","PISd",0,0,0,0,"B1", 0,15,   0, 0,    0,"AIS","N/A    ","OK ","OK ",    000870.009,    -054.920,    -006.400,    0014.796,    0042.896
"FRM_AIS_EDR_2064.DAT           ",2005-08-23T16:11:41.45 ,"1/0072893496.21843",    0,   32,  215717,"AIS","B1","B1","B0","B0","PISd",0,0,0,0,"B1", 0,15,   0, 0,    0,"AIS","N/A    ","OK ","OK ",    000860.844,    -054.545,    -006.364,    0014.801,    0042.761
"FRM_AIS_EDR_2064.DAT           ",2005-08-23T16:11:49.00 ,"1/0072893503.57442",    0,   33,  215717,"AIS","B1","B1","B0","B0","PISd",0,0,0,0,"B1", 0,15,   0, 0,    0,"AIS","N/A    ","OK ","OK ",    000851.728,    -054.169,    -006.328,    0014.805,    0042.627
"FRM_AIS_EDR_2064.DAT           ",2005-08-23T16:11:56.54 ,"1/0072893511.27505",    0,   34,  215717,"AIS","B1","B1","B0","B0","PISd",0,0,0,0,"B1", 0,15,   0, 0,    0,"AIS","N/A    ","OK ","OK ",    000842.661,    -053.791,    -006.294,    0014.810,    0042.495
"FRM_AIS_EDR_2064.DAT           ",2005-08-23T16:12:04.08 ,"1/0072893518.63105",    0,   35,  215717,"AIS","B1","B1","B0","B0","PISd",0,0,0,0,"B1", 0,15,   0, 0,    0,"AIS","N/A    ","OK ","OK ",    000833.644,    -053.411,    -006.261,    0014.814,    0042.365
"FRM_AIS_EDR_2064.DAT           ",2005-08-23T16:12:11.63 ,"1/0072893526.33168",    0,   36,  215717,"AIS","B1","B1","B0","B0","PISd",0,0,0,0,"B1", 0,15,   0, 0,    0,"AIS","N/A    ","OK ","OK ",    000824.676,    -053.029,    -006.228,    0014.818,    0042.236
"FRM_AIS_EDR_2064.DAT           ",2005-08-23T16:12:19.17 ,"1/0072893534.03231",    0,   37,  215717,"AIS","B1","B1","B0","B0","PISd",0,0,0,0,"B1", 0,15,   0, 0,    0,"AIS","N/A    ","OK ","OK ",    000815.760,    -052.646,    -006.197,    0014.822,    0042.110
"FRM_AIS_EDR_2064.DAT           ",2005-08-23T16:12:26.71 ,"1/0072893541.38831",    0,   38,  215717,"AIS","B1","B1","B0","B0","PISd",0,0,0,0,"B1", 0,15,   0, 0,    0,"AIS","N/A    ","OK ","OK ",    000806.894,    -052.261,    -006.166,    0014.826,    0041.986
"FRM_AIS_EDR_2064.DAT           ",2005-08-23T16:12:34.26 ,"1/0072893549.08894",    0,   39,  215717,"AIS","B1","B1","B0","B0","PISd",0,0,0,0,"B1", 0,15,   0, 0,    0,"AIS","N/A    ","OK ","OK ",    000798.081,    -051.875,    -006.136,    0014.830,    0041.864
"FRM_AIS_EDR_2064.DAT           ",2005-08-23T16:12:41.80 ,"1/0072893556.44493",    0,   40,  215717,"AIS","B1","B1","B0","B0","PISd",0,0,0,0,"B1", 0,15,   0, 0,    0,"AIS","N/A    ","OK ","OK ",    000789.321,    -051.487,    -006.107,    0014.834,    0041.743
"FRM_AIS_EDR_2064.DAT           ",2005-08-23T16:12:49.34 ,"1/0072893564.14557",    0,   41,  215717,"AIS","B1","B1","B0","B0","PISd",0,0,0,0,"B1", 0,15,   0, 0,    0,"AIS","N/A    ","OK ","OK ",    000780.614,    -051.097,    -006.079,    0014.838,    0041.625
"FRM_AIS_EDR_2064.DAT           ",2005-08-23T16:12:56.89 ,"1/0072893571.50156",    0,   42,  215717,"AIS","B1","B1","B0","B0","PISd",0,0,0,0,"B1", 0,15,   0, 0,    0,"AIS","N/A    ","OK ","OK ",    000771.960,    -050.706,    -006.051,    0014.842,    0041.510
"FRM_AIS_EDR_2064.DAT           ",2005-08-23T16:13:04.43 ,"1/0072893579.20219",    0,   43,  215717,"AIS","B1","B1","B0","B0","PISd",0,0,0,0,"B1", 0,15,   0, 0,    0,"AIS","N/A    ","OK ","OK ",    000763.362,    -050.313,    -006.024,    0014.846,    0041.396
"FRM_AIS_EDR_2064.DAT           ",2005-08-23T16:13:11.97 ,"1/0072893586.55819",    0,   44,  215717,"AIS","B1","B1","B0","B0","PISd",0,0,0,0,"B1", 0,15,   0, 0,    0,"AIS","N/A    ","OK ","OK ",    000754.819,    -049.918,    -005.998,    0014.850,    0041.285
"FRM_AIS_EDR_2064.DAT           ",2005-08-23T16:13:19.52 ,"1/0072893594.25882",    0,   45,  215717,"AIS","B1","B1","B0","B0","PISd",0,0,0,0,"B1", 0,15,   0, 0,    0,"AIS","N/A    ","OK ","OK ",    000746.331,    -049.522,    -005.972,    0014.854,    0041.177
"FRM_AIS_EDR_2064.DAT           ",2005-08-23T16:13:27.06 ,"1/0072893601.61481",    0,   46,  215717,"AIS","B1","B1","B0","B0","PISd",0,0,0,0,"B1", 0,15,   0, 0,    0,"AIS","N/A    ","OK ","OK ",    000737.901,    -049.124,    -005.947,    0014.857,    0041.070
"FRM_AIS_EDR_2064.DAT           ",2005-08-23T16:13:34.60 ,"1/0072893609.31545",    0,   47,  215717,"AIS","B1","B1","B0","B0","PISd",0,0,0,0,"B1", 0,15,   0, 0,    0,"AIS","N/A    ","OK ","OK ",    000729.527,    -048.724,    -005.923,    0014.861,    0040.967
"FRM_AIS_EDR_2064.DAT           ",2005-08-23T16:13:42.15 ,"1/0072893617.01608",    0,   48,  215717,"AIS","B1","B1","B0","B0","PISd",0,0,0,0,"B1", 0,15,   0, 0,    0,"AIS","N/A    ","OK ","OK ",    000721.212,    -048.323,    -005.900,    0014.864,    0040.866
"FRM_AIS_EDR_2064.DAT           ",2005-08-23T16:13:49.69 ,"1/0072893624.37207",    0,   49,  215717,"AIS","B1","B1","B0","B0","PISd",0,0,0,0,"B1", 0,15,   0, 0,    0,"AIS","N/A    ","OK ","OK ",    000712.955,    -047.920,    -005.877,    0014.868,    0040.767
"FRM_AIS_EDR_2064.DAT           ",2005-08-23T16:13:57.23 ,"1/0072893632.07271",    0,   50,  215717,"AIS","B1","B1","B0","B0","PISd",0,0,0,0,"B1", 0,15,   0, 0,    0,"AIS","N/A    ","OK ","OK ",    000704.757,    -047.516,    -005.855,    0014.872,    0040.672
"FRM_AIS_EDR_2064.DAT           ",2005-08-23T16:14:04.78 ,"1/0072893639.42870",    0,   51,  215717,"AIS","B1","B1","B0","B0","PISd",0,0,0,0,"B1", 0,15,   0, 0,    0,"AIS","N/A    ","OK ","OK ",    000696.619,    -047.110,    -005.833,    0014.875,    0040.579
"FRM_AIS_EDR_2064.DAT           ",2005-08-23T16:14:12.32 ,"1/0072893647.12933",    0,   52,  215717,"AIS","B1","B1","B0","B0","PISd",0,0,0,0,"B1", 0,15,   0, 0,    0,"AIS","N/A    ","OK ","OK ",    000688.542,    -046.702,    -005.812,    0014.878,    0040.489
"FRM_AIS_EDR_2064.DAT           ",2005-08-23T16:14:19.86 ,"1/0072893654.48533",    0,   53,  215717,"AIS","B1","B1","B0","B0","PISd",0,0,0,0,"B1", 0,15,   0, 0,    0,"AIS","N/A    ","OK ","OK ",    000680.525,    -046.293,    -005.791,    0014.882,    0040.402
"FRM_AIS_EDR_2064.DAT           ",2005-08-23T16:14:27.41 ,"1/0072893662.18596",    0,   54,  215717,"AIS","B1","B1","B0","B0","PISd",0,0,0,0,"B1", 0,15,   0, 0,    0,"AIS","N/A    ","OK ","OK ",    000672.571,    -045.882,    -005.771,    0014.885,    0040.318
"FRM_AIS_EDR_2064.DAT           ",2005-08-23T16:14:34.95 ,"1/0072893669.54195",    0,   55,  215717,"AIS","B1","B1","B0","B0","PISd",0,0,0,0,"B1", 0,15,   0, 0,    0,"AIS","N/A    ","OK ","OK ",    000664.680,    -045.470,    -005.752,    0014.889,    0040.236
"FRM_AIS_EDR_2064.DAT           ",2005-08-23T16:14:42.49 ,"1/0072893677.24259",    0,   56,  215717,"AIS","B1","B1","B0","B0","PISd",0,0,0,0,"B1", 0,15,   0, 0,    0,"AIS","N/A    ","OK ","OK ",    000656.851,    -045.056,    -005.733,    0014.892,    0040.158
"FRM_AIS_EDR_2064.DAT           ",2005-08-23T16:14:50.03 ,"1/0072893684.59858",    0,   57,  215717,"AIS","B1","B1","B0","B0","PISd",0,0,0,0,"B1", 0,15,   0, 0,    0,"AIS","N/A    ","OK ","OK ",    000649.087,    -044.640,    -005.715,    0014.895,    0040.084
"FRM_AIS_EDR_2064.DAT           ",2005-08-23T16:14:57.58 ,"1/0072893692.29921",    0,   58,  215717,"AIS","B1","B1","B0","B0","PISd",0,0,0,0,"B1", 0,15,   0, 0,    0,"AIS","N/A    ","OK ","OK ",    000641.387,    -044.223,    -005.697,    0014.898,    0040.012
"FRM_AIS_EDR_2064.DAT           ",2005-08-23T16:15:05.12 ,"1/0072893699.65521",    0,   59,  215717,"AIS","B1","B1","B0","B0","PISd",0,0,0,0,"B1", 0,15,   0, 0,    0,"AIS","N/A    ","OK ","OK ",    000633.753,    -043.804,    -005.680,    0014.902,    0039.944
"FRM_AIS_EDR_2064.DAT           ",2005-08-23T16:15:12.66 ,"1/0072893707.35584",    0,   60,  215717,"AIS","B1","B1","B0","B0","PISd",0,0,0,0,"B1", 0,15,   0, 0,    0,"AIS","N/A    ","OK ","OK ",    000626.184,    -043.384,    -005.663,    0014.905,    0039.879
"FRM_AIS_EDR_2064.DAT           ",2005-08-23T16:15:20.21 ,"1/0072893715.05647",    0,   61,  215717,"AIS","B1","B1","B0","B0","PISd",0,0,0,0,"B1", 0,15,   0, 0,    0,"AIS","N/A    ","OK ","OK ",    000618.682,    -042.962,    -005.647,    0014.908,    0039.817
"FRM_AIS_EDR_2064.DAT           ",2005-08-23T16:15:27.75 ,"1/0072893722.41247",    0,   62,  215717,"AIS","B1","B1","B0","B0","PISd",0,0,0,0,"B1", 0,15,   0, 0,    0,"AIS","N/A    ","OK ","OK ",    000611.248,    -042.538,    -005.631,    0014.911,    0039.759
"FRM_AIS_EDR_2064.DAT           ",2005-08-23T16:15:35.29 ,"1/0072893730.11310",    0,   63,  215717,"AIS","B1","B1","B0","B0","PISd",0,0,0,0,"B1", 0,15,   0, 0,    0,"AIS","N/A    ","OK ","OK ",    000603.881,    -042.113,    -005.615,    0014.914,    0039.704
"FRM_AIS_EDR_2064.DAT           ",2005-08-23T16:15:42.84 ,"1/0072893737.46909",    0,   64,  215717,"AIS","B1","B1","B0","B0","PISd",0,0,0,0,"B1", 0,15,   0, 0,    0,"AIS","N/A    ","OK ","OK ",    000596.583,    -041.686,    -005.600,    0014.917,    0039.653
"FRM_AIS_EDR_2064.DAT           ",2005-08-23T16:15:50.38 ,"1/0072893745.16973",    0,   65,  215717,"AIS","B1","B1","B0","B0","PISd",0,0,0,0,"B1", 0,15,   0, 0,    0,"AIS","N/A    ","OK ","OK ",    000589.355,    -041.258,    -005.586,    0014.920,    0039.606
"FRM_AIS_EDR_2064.DAT           ",2005-08-23T16:15:57.92 ,"1/0072893752.52572",    0,   66,  215717,"AIS","B1","B1","B0","B0","PISd",0,0,0,0,"B1", 0,15,   0, 0,    0,"AIS","N/A    ","OK ","OK ",    000582.197,    -040.828,    -005.572,    0014.923,    0039.562
"FRM_AIS_EDR_2064.DAT           ",2005-08-23T16:16:05.47 ,"1/0072893760.22635",    0,   67,  215717,"AIS","B1","B1","B0","B0","PISd",0,0,0,0,"B1", 0,15,   0, 0,    0,"AIS","N/A    ","OK ","OK ",    000575.109,    -040.397,    -005.558,    0014.926,    0039.522
"FRM_AIS_EDR_2064.DAT           ",2005-08-23T16:16:13.01 ,"1/0072893767.58235",    0,   68,  215717,"AIS","B1","B1","B0","B0","PISd",0,0,0,0,"B1", 0,15,   0, 0,    0,"AIS","N/A    ","OK ","OK ",    000568.093,    -039.964,    -005.545,    0014.929,    0039.486
"FRM_AIS_EDR_2064.DAT           ",2005-08-23T16:16:20.55 ,"1/0072893775.28298",    0,   69,  215717,"AIS","B1","B1","B0","B0","PISd",0,0,0,0,"B1", 0,15,   0, 0,    0,"AIS","N/A    ","OK ","OK ",    000561.149,    -039.530,    -005.532,    0014.932,    0039.454
"FRM_AIS_EDR_2064.DAT           ",2005-08-23T16:16:28.10 ,"1/0072893782.63897",    0,   70,  215717,"AIS","B1","B1","B0","B0","PISd",0,0,0,0,"B1", 0,15,   0, 0,    0,"AIS","N/A    ","OK ","OK ",    000554.278,    -039.094,    -005.520,    0014.935,    0039.426
"FRM_AIS_EDR_2064.DAT           ",2005-08-23T16:16:35.64 ,"1/0072893790.33961",    0,   71,  215717,"AIS","B1","B1","B0","B0","PISd",0,0,0,0,"B1", 0,15,   0, 0,    0,"AIS","N/A    ","OK ","OK ",    000547.480,    -038.657,    -005.508,    0014.938,    0039.401
"FRM_AIS_EDR_2064.DAT           ",2005-08-23T16:16:43.18 ,"1/0072893798.04024",    0,   72,  215717,"AIS","B1","B1","B0","B0","PISd",0,0,0,0,"B1", 0,15,   0, 0,    0,"AIS","N/A    ","OK ","OK ",    000540.756,    -038.218,    -005.496,    0014.940,    0039.381
"FRM_AIS_EDR_2064.DAT           ",2005-08-23T16:16:50.73 ,"1/0072893805.39623",    0,   73,  215717,"AIS","B1","B1","B0","B0","PISd",0,0,0,0,"B1", 0,15,   0, 0,    0,"AIS","N/A    ","OK ","OK ",    000534.108,    -037.778,    -005.485,    0014.943,    0039.365
"FRM_AIS_EDR_2064.DAT           ",2005-08-23T16:16:58.27 ,"1/0072893813.09687",    0,   74,  215717,"AIS","B1","B1","B0","B0","PISd",0,0,0,0,"B1", 0,15,   0, 0,    0,"AIS","N/A    ","OK ","OK ",    000527.535,    -037.336,    -005.474,    0014.946,    0039.353
"FRM_AIS_EDR_2064.DAT           ",2005-08-23T16:17:05.81 ,"1/0072893820.45286",    0,   75,  215717,"AIS","B1","B1","B0","B0","PISd",0,0,0,0,"B1", 0,15,   0, 0,    0,"AIS","N/A    ","OK ","OK ",    000521.038,    -036.893,    -005.463,    0014.949,    0039.345
"FRM_AIS_EDR_2064.DAT           ",2005-08-23T16:17:13.36 ,"1/0072893828.15349",    0,   76,  215717,"AIS","B1","B1","B0","B0","PISd",0,0,0,0,"B1", 0,15,   0, 0,    0,"AIS","N/A    ","OK ","OK ",    000514.617,    -036.448,    -005.453,    0014.951,    0039.341
"FRM_AIS_EDR_2064.DAT           ",2005-08-23T16:17:20.90 ,"1/0072893835.50948",    0,   77,  215717,"AIS","B1","B1","B0","B0","PISd",0,0,0,0,"B1", 0,15,   0, 0,    0,"AIS","N/A    ","OK ","OK ",    000508.275,    -036.002,    -005.443,    0014.954,    0039.342
"FRM_AIS_EDR_2064.DAT           ",2005-08-23T16:17:28.44 ,"1/0072893843.21012",    0,   78,  215717,"AIS","B1","B1","B0","B0","PISd",0,0,0,0,"B1", 0,15,   0, 0,    0,"AIS","N/A    ","OK ","OK ",    000502.010,    -035.554,    -005.434,    0014.957,    0039.347
"FRM_AIS_EDR_2064.DAT           ",2005-08-23T16:17:35.99 ,"1/0072893850.56611",    0,   79,  215717,"AIS","B1","B1","B0","B0","PISd",0,0,0,0,"B1", 0,15,   0, 0,    0,"AIS","N/A    ","OK ","OK ",    000495.825,    -035.105,    -005.424,    0014.959,    0039.356
"FRM_AIS_EDR_2064.DAT           ",2005-08-23T16:17:43.53 ,"1/0072893858.26674",    0,   80,  215717,"AIS","B1","B1","B0","B0","PISd",0,0,0,0,"B1", 0,15,   0, 0,    0,"AIS","N/A    ","OK ","OK ",    000489.719,    -034.655,    -005.415,    0014.962,    0039.370
"FRM_AIS_EDR_2064.DAT           ",2005-08-23T16:17:51.07 ,"1/0072893865.62274",    0,   81,  215717,"AIS","B1","B1","B0","B0","PISd",0,0,0,0,"B1", 0,15,   0, 0,    0,"AIS","N/A    ","OK ","OK ",    000483.693,    -034.203,    -005.407,    0014.964,    0039.388
"FRM_AIS_EDR_2064.DAT           ",2005-08-23T16:17:58.61 ,"1/0072893873.32337",    0,   82,  215717,"AIS","B1","B1","B0","B0","PISd",0,0,0,0,"B1", 0,15,   0, 0,    0,"AIS","N/A    ","OK ","OK ",    000477.748,    -033.750,    -005.398,    0014.967,    0039.410
"FRM_AIS_EDR_2064.DAT           ",2005-08-23T16:18:06.16 ,"1/0072893881.02400",    0,   83,  215717,"AIS","B1","B1","B0","B0","PISd",0,0,0,0,"B1", 0,15,   0, 0,    0,"AIS","N/A    ","OK ","OK ",    000471.885,    -033.295,    -005.390,    0014.970,    0039.437
"FRM_AIS_EDR_2064.DAT           ",2005-08-23T16:18:13.70 ,"1/0072893888.38000",    0,   84,  215717,"AIS","B1","B1","B0","B0","PISd",0,0,0,0,"B1", 0,15,   0, 0,    0,"AIS","N/A    ","OK ","OK ",    000466.104,    -032.839,    -005.383,    0014.972,    0039.469
"FRM_AIS_EDR_2064.DAT           ",2005-08-23T16:18:21.24 ,"1/0072893896.08063",    0,   85,  215717,"AIS","B1","B1","B0","B0","PISd",0,0,0,0,"B1", 0,15,   0, 0,    0,"AIS","N/A    ","OK ","OK ",    000460.405,    -032.382,    -005.375,    0014.975,    0039.505
"FRM_AIS_EDR_2064.DAT           ",2005-08-23T16:18:28.79 ,"1/0072893903.43662",    0,   86,  215717,"AIS","B1","B1","B0","B0","PISd",0,0,0,0,"B1", 0,15,   0, 0,    0,"AIS","N/A    ","OK ","OK ",    000454.790,    -031.924,    -005.368,    0014.977,    0039.546
"FRM_AIS_EDR_2064.DAT           ",2005-08-23T16:18:36.33 ,"1/0072893911.13726",    0,   87,  215717,"AIS","B1","B1","B0","B0","PISd",0,0,0,0,"B1", 0,15,   0, 0,    0,"AIS","N/A    ","OK ","OK ",    000449.259,    -031.464,    -005.361,    0014.980,    0039.591
"FRM_AIS_EDR_2064.DAT           ",2005-08-23T16:18:43.87 ,"1/0072893918.49325",    0,   88,  215717,"AIS","B1","B1","B0","B0","PISd",0,0,0,0,"B1", 0,15,   0, 0,    0,"AIS","N/A    ","OK ","OK ",    000443.813,    -031.003,    -005.354,    0014.982,    0039.641
"FRM_AIS_EDR_2064.DAT           ",2005-08-23T16:18:51.42 ,"1/0072893926.19388",    0,   89,  215717,"AIS","B1","B1","B0","B0","PISd",0,0,0,0,"B1", 0,15,   0, 0,    0,"AIS","N/A    ","OK ","OK ",    000438.452,    -030.540,    -005.348,    0014.985,    0039.696
"FRM_AIS_EDR_2064.DAT           ",2005-08-23T16:18:58.96 ,"1/0072893933.54988",    0,   90,  215717,"AIS","B1","B1","B0","B0","PISd",0,0,0,0,"B1", 0,15,   0, 0,    0,"AIS","N/A    ","OK ","OK ",    000433.177,    -030.076,    -005.342,    0014.987,    0039.755